Time,TemperatureF,DewpointF,PressureIn,WindDirection,WindDirectionDegrees,WindSpeedMPH,WindSpeedGustMPH,Humidity,HourlyPrecipIn,Conditions,Clouds,dailyrainin,SoftwareType,DateUTC
2013-01-01 00:01:00,36.9,36.4,29.82,SW,225,0.0,-999.0,98,-99.99,,,0.00,Acu-Link.com,2013-01-01 05:01:00,
2013-01-01 00:16:00,36.5,36.0,29.81,West,270,0.0,-999.0,98,-99.99,,,0.00,Acu-Link.com,2013-01-01 05:16:00,
2013-01-01 00:32:00,36.3,35.8,29.80,East,90,0.0,-999.0,98,-99.99,,,0.00,Acu-Link.com,2013-01-01 05:32:00,
2013-01-01 00:47:00,36.5,36.0,29.79,ESE,112,0.0,-999.0,98,-99.99,,,0.00,Acu-Link.com,2013-01-01 05:47:00,
2013-01-01 01:02:00,36.5,36.0,29.78,NNW,337,0.0,-999.0,98,-99.99,,,0.00,Acu-Link.com,2013-01-01 06:02:00,
2013-01-01 01:18:00,36.5,36.0,29.79,SW,225,0.0,-999.0,98,-99.99,,,0.00,Acu-Link.com,2013-01-01 06:18:00,
2013-01-01 01:33:00,36.7,36.2,29.78,ENE,67,0.0,-999.0,98,-99.99,,,0.00,Acu-Link.com,2013-01-01 06:33:00,
2013-01-01 01:48:00,37.0,35.4,29.78,East,90,1.7,-999.0,94,-99.99,,,0.00,Acu-Link.com,2013-01-01 06:48:00,
2013-01-01 02:03:00,37.6,36.3,29.79,South,180,0.0,-999.0,95,-99.99,,,0.00,Acu-Link.com,2013-01-01 07:03:00,
2013-01-01 02:19:00,37.4,36.9,29.80,West,270,0.0,-999.0,98,-99.99,,,0.00,Acu-Link.com,2013-01-01 07:19:00,
2013-01-01 02:34:00,36.9,36.4,29.81,NNW,337,0.0,-999.0,98,-99.99,,,0.00,Acu-Link.com,2013-01-01 07:34:00,
2013-01-01 02:49:00,36.5,36.0,29.79,ESE,112,0.0,-999.0,98,-99.99,,,0.00,Acu-Link.com,2013-01-01 07:49:00,
2013-01-01 03:05:00,36.5,36.0,29.80,WSW,247,0.0,-999.0,98,-99.99,,,0.00,Acu-Link.com,2013-01-01 08:05:00,
2013-01-01 03:20:00,36.7,36.2,29.80,West,270,0.0,-999.0,98,-99.99,,,0.00,Acu-Link.com,2013-01-01 08:20:00,
2013-01-01 03:35:00,37.0,36.5,29.79,SSE,157,0.0,-999.0,98,-99.99,,,0.00,Acu-Link.com,2013-01-01 08:35:00,
2013-01-01 03:51:00,37.2,36.2,29.80,East,90,0.0,-999.0,96,-99.99,,,0.00,Acu-Link.com,2013-01-01 08:51:00,
2013-01-01 04:07:00,37.4,36.9,29.80,NNW,337,0.0,-999.0,98,-99.99,,,0.00,Acu-Link.com,2013-01-01 09:07:00,
2013-01-01 04:22:00,37.8,36.0,29.78,West,270,0.0,-999.0,93,-99.99,,,0.00,Acu-Link.com,2013-01-01 09:22:00,
2013-01-01 04:37:00,37.8,37.3,29.80,SSE,157,0.0,-999.0,98,-99.99,,,0.00,Acu-Link.com,2013-01-01 09:37:00,
2013-01-01 04:52:00,38.1,36.8,29.79,NNE,22,0.0,-999.0,95,-99.99,,,0.00,Acu-Link.com,2013-01-01 09:52:00,
2013-01-01 05:08:00,38.7,36.6,29.79,West,270,0.0,-999.0,92,-99.99,,,0.00,Acu-Link.com,2013-01-01 10:08:00,
2013-01-01 05:23:00,39.0,36.0,29.79,ESE,112,0.0,-999.0,89,-99.99,,,0.00,Acu-Link.com,2013-01-01 10:23:00,
2013-01-01 05:38:00,39.4,36.7,29.79,West,270,0.0,-999.0,90,-99.99,,,0.00,Acu-Link.com,2013-01-01 10:38:00,
2013-01-01 05:54:00,40.1,36.8,29.78,ENE,67,1.1,-999.0,88,-99.99,,,0.00,Acu-Link.com,2013-01-01 10:54:00,
2013-01-01 06:09:00,40.5,37.5,29.79,SSW,202,0.0,-999.0,89,-99.99,,,0.00,Acu-Link.com,2013-01-01 11:09:00,
2013-01-01 06:24:00,40.8,37.8,29.79,SE,135,3.2,-999.0,89,-99.99,,,0.00,Acu-Link.com,2013-01-01 11:24:00,
2013-01-01 06:39:00,40.1,37.4,29.79,SSE,157,3.2,-999.0,90,-99.99,,,0.00,Acu-Link.com,2013-01-01 11:39:00,
2013-01-01 06:55:00,40.3,36.5,29.80,ENE,67,2.7,-999.0,86,-99.99,,,0.00,Acu-Link.com,2013-01-01 11:55:00,
2013-01-01 07:10:00,40.3,36.5,29.81,SSE,157,2.2,-999.0,86,-99.99,,,0.00,Acu-Link.com,2013-01-01 12:10:00,
2013-01-01 07:25:00,40.3,37.0,29.81,South,180,2.2,-999.0,88,-99.99,,,0.00,Acu-Link.com,2013-01-01 12:25:00,
2013-01-01 07:41:00,40.5,37.5,29.80,SSE,157,2.7,-999.0,89,-99.99,,,0.00,Acu-Link.com,2013-01-01 12:41:00,
2013-01-01 07:56:00,41.2,37.6,29.81,South,180,1.7,-999.0,87,-99.99,,,0.00,Acu-Link.com,2013-01-01 12:56:00,
2013-01-01 08:11:00,40.8,38.4,29.82,South,180,0.0,-999.0,91,-99.99,,,0.00,Acu-Link.com,2013-01-01 13:11:00,
2013-01-01 08:27:00,40.8,38.7,29.82,NNE,22,0.0,-999.0,92,-99.99,,,0.00,Acu-Link.com,2013-01-01 13:27:00,
2013-01-01 08:42:00,40.8,38.7,29.81,ESE,112,2.7,-999.0,92,-99.99,,,0.00,Acu-Link.com,2013-01-01 13:42:00,
2013-01-01 08:57:00,41.0,39.4,29.80,NNW,337,0.0,-999.0,94,-99.99,,,0.00,Acu-Link.com,2013-01-01 13:57:00,
2013-01-01 09:12:00,41.0,39.9,29.80,SE,135,2.2,-999.0,96,-99.99,,,0.00,Acu-Link.com,2013-01-01 14:12:00,
2013-01-01 09:28:00,41.7,40.9,29.79,WNW,292,1.7,-999.0,97,-99.99,,,0.00,Acu-Link.com,2013-01-01 14:28:00,
2013-01-01 09:43:00,42.3,41.0,29.82,SSW,202,1.7,-999.0,95,-99.99,,,0.00,Acu-Link.com,2013-01-01 14:43:00,
2013-01-01 09:58:00,42.4,40.0,29.79,ENE,67,0.0,-999.0,91,-99.99,,,0.00,Acu-Link.com,2013-01-01 14:58:00,
2013-01-01 10:14:00,42.8,40.6,29.79,NNE,22,0.0,-999.0,92,-99.99,,,0.00,Acu-Link.com,2013-01-01 15:14:00,
2013-01-01 10:29:00,43.2,42.1,29.77,NNW,337,0.0,-999.0,96,-99.99,,,0.00,Acu-Link.com,2013-01-01 15:29:00,
2013-01-01 10:44:00,43.2,42.7,29.77,West,270,2.2,-999.0,98,-99.99,,,0.00,Acu-Link.com,2013-01-01 15:44:00,
2013-01-01 11:00:00,43.3,42.8,29.78,West,270,0.0,-999.0,98,-99.99,,,0.00,Acu-Link.com,2013-01-01 16:00:00,
2013-01-01 11:15:00,43.7,42.9,29.77,SE,135,0.0,-999.0,97,-99.99,,,0.00,Acu-Link.com,2013-01-01 16:15:00,
2013-01-01 11:30:00,44.6,43.3,29.76,NE,45,0.0,-999.0,95,-99.99,,,0.00,Acu-Link.com,2013-01-01 16:30:00,
2013-01-01 11:46:00,46.0,44.6,29.75,NNW,337,2.7,-999.0,95,-99.99,,,0.00,Acu-Link.com,2013-01-01 16:46:00,
2013-01-01 12:01:00,46.4,43.6,29.75,NNE,22,0.0,-999.0,90,-99.99,,,0.00,Acu-Link.com,2013-01-01 17:01:00,
2013-01-01 12:16:00,46.4,43.0,29.73,East,90,0.0,-999.0,88,-99.99,,,0.00,Acu-Link.com,2013-01-01 17:16:00,
2013-01-01 12:32:00,45.9,44.3,29.71,ENE,67,1.7,-999.0,94,-99.99,,,0.00,Acu-Link.com,2013-01-01 17:32:00,
2013-01-01 12:47:00,45.9,45.4,29.70,SE,135,1.7,-999.0,98,-99.99,,,0.00,Acu-Link.com,2013-01-01 17:47:00,
2013-01-01 13:02:00,46.0,45.5,29.71,West,270,2.2,-999.0,98,-99.99,,,0.00,Acu-Link.com,2013-01-01 18:02:00,
2013-01-01 13:18:00,46.6,46.1,29.71,SW,225,0.0,-999.0,98,-99.99,,,0.00,Acu-Link.com,2013-01-01 18:18:00,
2013-01-01 13:33:00,46.6,46.1,29.70,NE,45,1.7,-999.0,98,-99.99,,,0.00,Acu-Link.com,2013-01-01 18:33:00,
2013-01-01 13:48:00,46.6,46.1,29.70,North,0,2.2,-999.0,98,-99.99,,,0.00,Acu-Link.com,2013-01-01 18:48:00,
2013-01-01 14:03:00,46.6,46.1,29.68,NE,45,1.7,-999.0,98,-99.99,,,0.00,Acu-Link.com,2013-01-01 19:03:00,
2013-01-01 14:19:00,46.6,46.1,29.68,ESE,112,0.0,-999.0,98,-99.99,,,0.00,Acu-Link.com,2013-01-01 19:19:00,
2013-01-01 14:34:00,46.8,46.3,29.67,NNE,22,0.0,-999.0,98,-99.99,,,0.00,Acu-Link.com,2013-01-01 19:34:00,
2013-01-01 14:49:00,46.6,46.1,29.66,NNE,22,0.0,-999.0,98,-99.99,,,0.00,Acu-Link.com,2013-01-01 19:49:00,
2013-01-01 15:05:00,46.6,46.1,29.66,NE,45,0.0,-999.0,98,-99.99,,,0.00,Acu-Link.com,2013-01-01 20:05:00,
2013-01-01 15:20:00,46.4,45.9,29.68,ENE,67,0.0,-999.0,98,-99.99,,,0.00,Acu-Link.com,2013-01-01 20:20:00,
2013-01-01 15:35:00,46.2,45.7,29.68,ESE,112,1.7,-999.0,98,-99.99,,,0.00,Acu-Link.com,2013-01-01 20:35:00,
2013-01-01 15:51:00,45.9,45.4,29.67,East,90,1.7,-999.0,98,-99.99,,,0.00,Acu-Link.com,2013-01-01 20:51:00,
2013-01-01 16:06:00,45.7,45.2,29.69,SSW,202,0.0,-999.0,98,-99.99,,,0.00,Acu-Link.com,2013-01-01 21:06:00,
2013-01-01 16:21:00,45.7,45.2,29.68,NNE,22,0.0,-999.0,98,-99.99,,,0.00,Acu-Link.com,2013-01-01 21:21:00,
2013-01-01 16:36:00,45.3,44.8,29.69,ESE,112,0.0,-999.0,98,-99.99,,,0.00,Acu-Link.com,2013-01-01 21:36:00,
2013-01-01 16:52:00,45.1,44.6,29.69,NNW,337,0.0,-999.0,98,-99.99,,,0.00,Acu-Link.com,2013-01-01 21:52:00,
2013-01-01 17:07:00,44.8,44.3,29.71,ESE,112,0.0,-999.0,98,-99.99,,,0.00,Acu-Link.com,2013-01-01 22:07:00,
2013-01-01 17:22:00,44.2,43.7,29.69,ESE,112,0.0,-999.0,98,-99.99,,,0.00,Acu-Link.com,2013-01-01 22:22:00,
2013-01-01 17:38:00,43.9,43.4,29.69,East,90,0.0,-999.0,98,-99.99,,,0.00,Acu-Link.com,2013-01-01 22:38:00,
2013-01-01 17:53:00,43.5,43.0,29.71,West,270,0.0,-999.0,98,-99.99,,,0.00,Acu-Link.com,2013-01-01 22:53:00,
2013-01-01 18:08:00,43.3,42.8,29.70,West,270,0.0,-999.0,98,-99.99,,,0.00,Acu-Link.com,2013-01-01 23:08:00,
2013-01-01 18:24:00,43.0,42.5,29.71,SW,225,0.0,-999.0,98,-99.99,,,0.00,Acu-Link.com,2013-01-01 23:24:00,
2013-01-01 18:39:00,43.0,42.5,29.72,South,180,0.0,-999.0,98,-99.99,,,0.00,Acu-Link.com,2013-01-01 23:39:00,
2013-01-01 18:54:00,42.8,42.3,29.72,West,270,0.0,-999.0,98,-99.99,,,0.00,Acu-Link.com,2013-01-01 23:54:00,
2013-01-01 19:09:00,42.8,42.3,29.72,NW,315,0.0,-999.0,98,-99.99,,,0.00,Acu-Link.com,2013-01-02 00:09:00,
2013-01-01 19:25:00,42.6,42.1,29.72,ENE,67,0.0,-999.0,98,-99.99,,,0.00,Acu-Link.com,2013-01-02 00:25:00,
2013-01-01 19:40:00,42.6,42.1,29.73,WSW,247,0.0,-999.0,98,-99.99,,,0.00,Acu-Link.com,2013-01-02 00:40:00,
2013-01-01 19:55:00,42.6,42.1,29.71,West,270,1.1,-999.0,98,-99.99,,,0.01,Acu-Link.com,2013-01-02 00:55:00,
2013-01-01 20:11:00,42.6,42.1,29.71,SSE,157,0.0,-999.0,98,-99.99,,,0.01,Acu-Link.com,2013-01-02 01:11:00,
2013-01-01 20:26:00,42.6,42.1,29.72,SE,135,0.0,-999.0,98,-99.99,,,0.02,Acu-Link.com,2013-01-02 01:26:00,
2013-01-01 20:41:00,42.8,42.3,29.72,SSW,202,0.0,-999.0,98,-99.99,,,0.02,Acu-Link.com,2013-01-02 01:41:00,
2013-01-01 20:57:00,42.6,42.1,29.73,South,180,0.0,-999.0,98,-99.99,,,0.02,Acu-Link.com,2013-01-02 01:57:00,
2013-01-01 21:12:00,42.6,42.1,29.73,West,270,0.0,-999.0,98,-99.99,,,0.04,Acu-Link.com,2013-01-02 02:12:00,
2013-01-01 21:27:00,42.4,41.9,29.71,WSW,247,0.0,-999.0,98,-99.99,,,0.05,Acu-Link.com,2013-01-02 02:27:00,
2013-01-01 21:42:00,42.4,41.9,29.72,SSW,202,0.0,-999.0,98,-99.99,,,0.06,Acu-Link.com,2013-01-02 02:42:00,
2013-01-01 21:58:00,42.3,41.8,29.72,SW,225,0.0,-999.0,98,-99.99,,,0.06,Acu-Link.com,2013-01-02 02:58:00,
2013-01-01 22:13:00,42.3,41.8,29.72,SW,225,0.0,-999.0,98,-99.99,,,0.08,Acu-Link.com,2013-01-02 03:13:00,
2013-01-01 22:28:00,42.1,41.6,29.71,South,180,0.0,-999.0,98,-99.99,,,0.10,Acu-Link.com,2013-01-02 03:28:00,
2013-01-01 22:44:00,42.3,41.8,29.71,NE,45,0.0,-999.0,98,-99.99,,,0.11,Acu-Link.com,2013-01-02 03:44:00,
2013-01-01 22:59:00,42.1,41.6,29.71,SSE,157,0.0,-999.0,98,-99.99,,,0.12,Acu-Link.com,2013-01-02 03:59:00,
2013-01-01 23:14:00,42.3,41.8,29.72,WSW,247,0.0,-999.0,98,-99.99,,,0.14,Acu-Link.com,2013-01-02 04:14:00,
2013-01-01 23:30:00,42.1,41.6,29.70,SW,225,0.0,-999.0,98,-99.99,,,0.14,Acu-Link.com,2013-01-02 04:30:00,
2013-01-01 23:45:00,41.9,41.4,29.70,SW,225,0.0,-999.0,98,-99.99,,,0.14,Acu-Link.com,2013-01-02 04:45:00,